Location: Kitchener-Waterloo
(43.4500°N, 80.5000°W)
Time: 01:25:29
(UTC-04:00)

ISS - All Passes

Search period start: 25 September 2016 00:00
Search period end: 05 October 2016 00:00
Orbit: 400 x 410 km, 51.6° (Epoch: 25 September)

Date Brightness Start Highest point End Pass type
(mag) Time Alt. Az. Time Alt. Az. Time Alt. Az.
25 Sep - 00:10:21 10° W 00:13:14 28° NNW 00:16:09 10° NE night (unlit)
25 Sep - 01:48:01 10° NW 01:50:28 19° N 01:52:57 10° NE night (unlit)
25 Sep - 03:24:34 10° NW 03:27:38 35° NNE 03:30:42 10° E night (unlit)
25 Sep - 05:01:03 10° WNW 05:04:09 38° SW 05:07:14 10° SSE visible
25 Sep - 21:41:39 10° SSW 21:44:36 32° SE 21:47:34 10° ENE night (unlit)
25 Sep - 23:17:57 10° W 23:21:03 39° NNW 23:24:09 10° NE night (unlit)
26 Sep - 00:55:42 10° NW 00:58:10 19° N 01:00:39 10° NE night (unlit)
26 Sep - 02:32:34 10° NW 02:35:25 26° NNE 02:38:16 10° ENE night (unlit)
26 Sep - 04:08:53 10° WNW 04:12:10 72° SW 04:15:26 10° SE night (unlit)
26 Sep - 20:50:24 10° S 20:52:42 18° SE 20:55:01 10° E visible
26 Sep - 22:25:40 10° WSW 22:28:54 61° NNW 22:32:09 10° NE night (unlit)
27 Sep - 00:03:15 10° WNW 00:05:52 21° N 00:08:28 10° NE night (unlit)
27 Sep - 01:40:31 10° NW 01:43:09 22° N 01:45:47 10° ENE night (unlit)
27 Sep - 03:16:49 10° NW 03:20:05 65° NNE 03:23:22 10° ESE night (unlit)
27 Sep - 04:54:02 10° W 04:56:16 17° SW 04:58:31 10° S night (unlit)
27 Sep - 21:33:34 10° SW 21:36:49 77° SE 21:40:05 10° ENE visible
27 Sep - 23:10:47 10° WNW 23:13:34 25° NNW 23:16:23 10° NE night (unlit)
28 Sep - 00:48:21 10° NW 00:50:50 19° N 00:53:19 10° NE night (unlit)
28 Sep - 02:24:47 10° NW 02:27:56 41° NNE 02:31:05 10° E night (unlit)
28 Sep - 04:01:25 10° WNW 04:04:22 30° SW 04:07:18 10° SSE night (unlit)
28 Sep - 20:41:42 10° SSW 20:44:47 41° SE 20:47:53 10° ENE visible
28 Sep - 22:18:18 10° W 22:21:19 34° NNW 22:24:21 10° NE visible
28 Sep - 23:56:03 10° NW 23:58:29 19° N 00:00:57 10° NE night (unlit)
29 Sep - 01:32:46 10° NW 01:35:42 29° NNE 01:38:38 10° E night (unlit)
29 Sep - 03:09:08 10° WNW 03:12:22 57° SW 03:15:36 10° SE night (unlit)
29 Sep - 19:50:13 10° S 19:52:50 22° SE 19:55:27 10° E visible
29 Sep - 21:25:56 10° WSW 21:29:06 51° NNW 21:32:19 10° NE visible
29 Sep - 23:03:36 10° WNW 23:06:09 20° N 23:08:40 10° NE night (unlit)
30 Sep - 00:40:43 10° NW 00:43:25 23° NNE 00:46:07 10° ENE night (unlit)
30 Sep - 02:16:59 10° NW 02:20:17 80° NE 02:23:34 10° ESE night (unlit)
30 Sep - 03:54:37 10° W 03:56:22 14° SW 03:58:07 10° SSW night (unlit)
30 Sep - 18:59:30 10° SSE 19:00:55 12° SE 19:02:22 10° ESE daylight
30 Sep - 20:33:42 10° WSW 20:36:58 86° NNW 20:40:14 10° ENE visible
30 Sep - 22:11:06 10° WNW 22:13:49 23° NNW 22:16:32 10° NE visible
30 Sep - 23:48:33 10° NW 23:51:04 20° N 23:53:36 10° ENE night (unlit)
01 Oct - 01:24:55 10° NW 01:28:07 48° NNE 01:31:19 10° ESE night (unlit)
01 Oct - 03:01:42 10° W 03:04:27 24° SW 03:07:11 10° SSE night (unlit)
01 Oct - 19:41:43 10° SW 19:44:52 51° SE 19:48:04 10° ENE visible
01 Oct - 21:18:34 10° W 21:21:29 30° NNW 21:24:27 10° NE visible
01 Oct - 22:56:15 10° NW 22:58:41 19° N 23:01:08 10° NE night (unlit)
02 Oct - 00:32:52 10° NW 00:35:52 32° NNE 00:38:53 10° E night (unlit)
02 Oct - 02:09:17 10° WNW 02:12:26 45° SW 02:15:35 10° SE night (unlit)
02 Oct - 18:50:01 10° SSW 18:52:51 28° SE 18:55:41 10° ENE daylight
02 Oct - 20:26:06 10° W 20:29:14 43° NNW 20:32:23 10° NE visible
02 Oct - 22:03:49 10° NW 22:06:19 20° N 22:08:47 10° NE visible
02 Oct - 23:40:47 10° NW 23:43:34 25° NNE 23:46:20 10° ENE night (unlit)
03 Oct - 01:17:04 10° WNW 01:20:21 84° SW 01:23:37 10° SE night (unlit)
03 Oct - 02:55:27 10° WSW 02:56:20 11° SW 02:57:13 10° SW night (unlit)
03 Oct - 17:58:52 10° S 18:00:53 15° SE 18:02:54 10° E daylight
03 Oct - 19:33:46 10° WSW 19:37:01 70° NNW 19:40:16 10° NE visible
03 Oct - 21:11:17 10° WNW 21:13:56 22° N 21:16:34 10° NE visible
03 Oct - 22:48:37 10° NW 22:51:12 21° N 22:53:46 10° ENE night (unlit)
04 Oct - 00:24:56 10° NW 00:28:10 57° NNE 00:31:25 10° ESE night (unlit)
04 Oct - 02:01:56 10° W 02:04:25 20° SW 02:06:52 10° S night (unlit)
04 Oct - 18:41:38 10° SW 18:44:51 65° SE 18:48:06 10° ENE daylight
04 Oct - 20:18:43 10° WNW 20:21:34 27° NNW 20:24:25 10° NE visible
04 Oct - 21:56:20 10° NW 21:58:47 19° N 22:01:14 10° NE visible
04 Oct - 23:32:50 10° NW 23:35:55 37° NNE 23:38:59 10° E night (unlit)
